Flag for Germany Weather past 2 weeks in Neuss, North Rhine-Westphalia, Germany

Now
34 °F

Snow. Mostly cloudy.


Feels Like: 26 °F
Forecast: 18 / 29 °F
Wind: 10 mph from East

Location: Duesseldorf

Current Time: Dec 27, 2014 at 1:16:47 PM

Latest Report: Dec 27, 2014 at 12:50 PM


Visibility: 2 mi

Pressure: 29.42 "Hg

Humidity: 93%

Dew point: 32 °F

Location of NeussLocation

Historic Weather in Neuss — Graph

°F

Neuss temperature yesterday

Maximum temperature yesterday: 41 °F (at 12:20 PM)
Minimum temperature yesterday: 32 °F (at 1:20 AM)
Average temperature yesterday: 37 °F

Past Weeks' High & Low Weather Summary

 TemperatureHumidityPressure
High55 °F (Dec 18, 4:50 PM)100% (Dec 14, 3:50 AM)30.42 "Hg (Dec 14, 3:50 AM)
Low30 °F (Dec 14, 5:50 AM)70% (Dec 15, 7:50 AM)29.42 "Hg (Dec 12, 12:50 PM)
Average44 °F87%29.99 "Hg
* Reported Dec 12 12:20 PM — Dec 27 12:20 PM, Neuss, Weather by CustomWeather, © 2014

Note: Actual official high and low records may vary slightly from our data, if they occured in-between our weather recording intervals... More about our weather records

Advertising

Neuss weather history for previous 24 hours

 ConditionsComfort  
Time TempWeatherWind HumidityBarometerVisibility
12:20 PM
Dec 27
34 °FLight rain. Mostly cloudy.13 mph93%29.45 "Hg4 mi
11:50 AM34 °FLight rain. Fog.13 mph93%29.45 "Hg2 mi
11:20 AM34 °FLight rain. Fog.14 mph93%29.45 "Hg2 mi
10:50 AM34 °FRain. Fog.15 mph93%29.45 "Hg1 mi
10:20 AM34 °FRain. Fog.16 mph93%29.45 "Hg1 mi
9:50 AM34 °FLight rain. Fog.18 mph93%29.45 "Hg2 mi
9:20 AM34 °FRain. Fog.17 mph93%29.45 "Hg1 mi
8:50 AM34 °FLight rain. Fog.18 mph93%29.47 "Hg1 mi
8:20 AM34 °FLight rain. Fog.21 mph93%29.47 "Hg2 mi
7:50 AM34 °FRain. Fog.22 mph93%29.47 "Hg2 mi
7:20 AM34 °FRain. Fog.23 mph93%29.50 "Hg2 mi
6:50 AM34 °FRain. Overcast.23 mph93%29.53 "Hg3 mi
6:20 AM34 °FRain. Overcast.21 mph93%29.56 "Hg3 mi
5:50 AM36 °FRain. Partly cloudy.23 mph93%29.62 "Hg3 mi
5:20 AM36 °FRain. Passing clouds.20 mph93%29.65 "Hg4 mi
4:20 AM37 °FPartly cloudy.23 mph81%29.74 "HgN/A
3:50 AM37 °FPartly cloudy.20 mph81%29.80 "HgN/A
3:20 AM37 °FPassing clouds.18 mph81%29.83 "HgN/A
2:50 AM37 °FClear.18 mph81%29.86 "Hg10 mi
2:20 AM37 °FClear.18 mph81%29.89 "Hg10 mi
1:50 AM37 °FClear.18 mph81%29.92 "Hg10 mi
1:20 AM37 °FClear.14 mph81%29.95 "Hg10 mi
12:50 AM37 °FClear.14 mph87%30.01 "Hg10 mi
12:20 AM37 °FClear.14 mph87%30.04 "Hg10 mi
11:50 PM
Dec 26
37 °FClear.13 mph87%30.07 "Hg10 mi
11:20 PM37 °FPassing clouds.14 mph87%30.09 "HgN/A
10:50 PM37 °FPassing clouds.10 mph93%30.12 "HgN/A
10:20 PM37 °FClear.9 mph93%30.12 "Hg10 mi
9:50 PM37 °FClear.9 mph93%30.15 "Hg10 mi
9:20 PM37 °FPassing clouds.9 mph93%30.18 "HgN/A
8:50 PM37 °FPartly cloudy.7 mph87%30.21 "HgN/A
8:20 PM37 °FPartly cloudy.8 mph93%30.24 "HgN/A
7:50 PM39 °FPartly cloudy.7 mph87%30.24 "HgN/A
7:20 PM39 °FPassing clouds.7 mph93%30.24 "HgN/A
6:50 PM39 °FPassing clouds.6 mph87%30.27 "HgN/A
6:20 PM37 °FPartly cloudy.6 mph93%30.27 "HgN/A
5:50 PM39 °FPassing clouds.6 mph87%30.30 "HgN/A
5:20 PM37 °FPassing clouds.7 mph93%30.30 "HgN/A
4:20 PM37 °FBroken clouds.5 mph93%30.33 "HgN/A
3:50 PM39 °FBroken clouds.7 mph87%30.33 "HgN/A
3:20 PM39 °FBroken clouds.5 mph93%30.33 "HgN/A
2:50 PM39 °FBroken clouds.6 mph93%30.33 "HgN/A
2:20 PM41 °FBroken clouds.7 mph87%30.36 "HgN/A
1:50 PM41 °FBroken clouds.5 mph87%30.36 "HgN/A
1:20 PM41 °FPartly sunny.6 mph87%30.36 "HgN/A
Weather by CustomWeather, © 2014

See weather overviewHow to use our weather pages